TimeCST,TemperatureF,Dew PointF,Humidity,Sea Level PressureIn,VisibilityMPH,Wind Direction,Wind SpeedMPH,Gust SpeedMPH,PrecipitationIn,Events,Conditions,WindDirDegrees,DateUTC
12:15 AM,39.9,23.0,51,30.24,10.0,SSE,4.6,-,N/A,,Clear,150,2013-03-01 06:15:00
12:35 AM,38.8,23.9,55,30.24,10.0,SSE,4.6,-,N/A,,Clear,150,2013-03-01 06:35:00
12:55 AM,34.9,23.4,63,30.25,10.0,South,3.5,-,N/A,,Clear,170,2013-03-01 06:55:00
1:15 AM,32.2,25.2,75,30.25,10.0,SSW,5.8,-,N/A,,Clear,210,2013-03-01 07:15:00
1:35 AM,35.6,24.6,64,30.24,10.0,Calm,Calm,-,N/A,,Clear,0,2013-03-01 07:35:00
1:55 AM,33.8,23.9,67,30.25,10.0,Calm,Calm,-,N/A,,Clear,0,2013-03-01 07:55:00
2:15 AM,32.0,23.7,71,30.25,10.0,Calm,Calm,-,N/A,,Clear,0,2013-03-01 08:15:00
2:35 AM,33.4,23.4,67,30.23,10.0,SSW,6.9,-,N/A,,Clear,210,2013-03-01 08:35:00
2:55 AM,34.5,23.5,64,30.23,10.0,Calm,Calm,-,N/A,,Clear,0,2013-03-01 08:55:00
3:35 AM,31.1,23.9,75,30.22,10.0,SSE,3.5,-,N/A,,Clear,150,2013-03-01 09:35:00
3:55 AM,31.6,24.8,76,30.21,10.0,SE,3.5,-,N/A,,Clear,140,2013-03-01 09:55:00
4:15 AM,32.2,25.2,75,30.21,10.0,SSW,4.6,-,N/A,,Clear,210,2013-03-01 10:15:00
4:35 AM,31.6,24.8,76,30.22,10.0,SSW,4.6,-,N/A,,Clear,200,2013-03-01 10:35:00
5:15 AM,31.8,24.6,75,30.22,10.0,Calm,Calm,-,N/A,,Clear,0,2013-03-01 11:15:00
5:35 AM,29.8,23.7,78,30.22,10.0,WSW,3.5,-,N/A,,Clear,240,2013-03-01 11:35:00
5:55 AM,32.0,24.4,74,30.23,10.0,Calm,Calm,-,N/A,,Clear,0,2013-03-01 11:55:00
6:15 AM,30.9,24.8,78,30.23,10.0,Calm,Calm,-,N/A,,Clear,0,2013-03-01 12:15:00
6:35 AM,30.9,24.8,78,30.23,10.0,SE,3.5,-,N/A,,Scattered Clouds,130,2013-03-01 12:35:00
6:55 AM,30.9,25.2,79,30.24,10.0,Calm,Calm,-,N/A,,Mostly Cloudy,0,2013-03-01 12:55:00
7:15 AM,31.5,25.2,78,30.24,10.0,North,-9999.0,-,N/A,,Scattered Clouds,0,2013-03-01 13:15:00
7:35 AM,32.4,25.5,76,30.24,10.0,Calm,Calm,-,N/A,,Scattered Clouds,0,2013-03-01 13:35:00
7:55 AM,33.8,26.4,74,30.26,10.0,Calm,Calm,-,N/A,,Mostly Cloudy,0,2013-03-01 13:55:00
8:15 AM,35.1,27.5,74,30.27,10.0,Calm,Calm,-,N/A,,Scattered Clouds,0,2013-03-01 14:15:00
8:35 AM,37.4,27.9,68,30.29,10.0,ENE,3.5,-,N/A,,Mostly Cloudy,60,2013-03-01 14:35:00
9:15 AM,43.0,26.2,52,30.30,10.0,Calm,Calm,-,N/A,,Mostly Cloudy,0,2013-03-01 15:15:00
9:35 AM,44.8,26.8,49,30.30,10.0,Calm,Calm,-,N/A,,Scattered Clouds,0,2013-03-01 15:35:00
10:15 AM,49.1,26.8,42,30.30,10.0,Calm,Calm,-,N/A,,Clear,0,2013-03-01 16:15:00
10:35 AM,51.4,27.0,39,30.29,10.0,NW,3.5,-,N/A,,Scattered Clouds,310,2013-03-01 16:35:00
10:55 AM,51.1,24.6,36,30.28,10.0,Calm,Calm,-,N/A,,Scattered Clouds,0,2013-03-01 16:55:00
11:15 AM,51.4,23.9,34,30.28,10.0,NNW,3.5,-,N/A,,Scattered Clouds,330,2013-03-01 17:15:00
11:35 AM,54.1,25.7,33,30.27,10.0,NNW,4.6,-,N/A,,Clear,330,2013-03-01 17:35:00
12:15 PM,58.8,24.3,27,30.25,10.0,West,6.9,16.1,N/A,,Clear,270,2013-03-01 18:15:00
12:35 PM,60.6,23.5,24,30.23,10.0,WNW,9.2,-,N/A,,Clear,290,2013-03-01 18:35:00
12:55 PM,60.3,23.0,24,30.22,10.0,WNW,17.3,23.0,N/A,,Scattered Clouds,300,2013-03-01 18:55:00
1:15 PM,63.0,22.8,22,30.21,10.0,NW,24.2,31.1,N/A,,Scattered Clouds,310,2013-03-01 19:15:00
1:35 PM,63.1,21.4,20,30.21,10.0,WNW,27.6,38.0,N/A,,Mostly Cloudy,300,2013-03-01 19:35:00
1:55 PM,58.6,22.5,25,30.20,10.0,NNW,20.7,29.9,N/A,,Overcast,340,2013-03-01 19:55:00
2:15 PM,59.7,20.3,22,30.20,10.0,NNW,25.3,31.1,N/A,,Mostly Cloudy,330,2013-03-01 20:15:00
2:35 PM,59.5,21.0,23,30.20,10.0,NW,16.1,27.6,N/A,,Scattered Clouds,320,2013-03-01 20:35:00
2:55 PM,59.2,23.7,26,30.20,10.0,NW,24.2,33.4,N/A,,Scattered Clouds,320,2013-03-01 20:55:00
3:15 PM,60.1,25.5,27,30.20,10.0,NW,20.7,25.3,N/A,,Scattered Clouds,310,2013-03-01 21:15:00
3:35 PM,60.4,25.5,26,30.19,10.0,NW,12.7,24.2,N/A,,Mostly Cloudy,310,2013-03-01 21:35:00
4:15 PM,59.0,23.5,26,30.19,10.0,North,19.6,28.8,N/A,,Scattered Clouds,350,2013-03-01 22:15:00
4:35 PM,56.3,24.8,30,30.19,10.0,North,15.0,24.2,N/A,,Scattered Clouds,360,2013-03-01 22:35:00
4:55 PM,58.3,26.4,30,30.20,10.0,North,17.3,26.5,N/A,,Scattered Clouds,360,2013-03-01 22:55:00
5:15 PM,58.5,21.7,24,30.20,10.0,North,24.2,29.9,N/A,,Scattered Clouds,360,2013-03-01 23:15:00
5:35 PM,55.8,27.3,34,30.21,10.0,North,20.7,33.4,N/A,,Scattered Clouds,10,2013-03-01 23:35:00
5:55 PM,54.7,26.8,34,30.23,10.0,North,18.4,25.3,N/A,,Clear,360,2013-03-01 23:55:00
6:15 PM,52.7,28.0,39,30.24,10.0,North,16.1,26.5,N/A,,Clear,10,2013-03-02 00:15:00
6:35 PM,51.8,27.3,39,30.25,10.0,North,16.1,25.3,N/A,,Clear,360,2013-03-02 00:35:00
6:55 PM,51.1,26.8,39,30.26,10.0,North,15.0,23.0,N/A,,Clear,10,2013-03-02 00:55:00
7:15 PM,50.0,26.8,41,30.27,10.0,North,12.7,18.4,N/A,,Clear,10,2013-03-02 01:15:00
7:35 PM,49.1,26.6,42,30.28,10.0,North,11.5,17.3,N/A,,Clear,10,2013-03-02 01:35:00
7:55 PM,47.7,26.6,44,30.28,10.0,NNE,9.2,-,N/A,,Scattered Clouds,30,2013-03-02 01:55:00
8:15 PM,47.3,26.8,45,30.28,10.0,NE,9.2,-,N/A,,Mostly Cloudy,40,2013-03-02 02:15:00
8:35 PM,46.6,26.6,46,30.28,10.0,NE,9.2,-,N/A,,Scattered Clouds,40,2013-03-02 02:35:00
8:55 PM,46.0,27.1,48,30.29,10.0,NE,4.6,-,N/A,,Mostly Cloudy,40,2013-03-02 02:55:00
9:15 PM,45.3,27.3,49,30.30,10.0,NE,4.6,-,N/A,,Scattered Clouds,50,2013-03-02 03:15:00
9:35 PM,45.0,27.5,50,30.30,10.0,NNE,3.5,-,N/A,,Clear,30,2013-03-02 03:35:00
9:55 PM,42.3,27.5,56,30.32,10.0,Calm,Calm,-,N/A,,Clear,0,2013-03-02 03:55:00
10:15 PM,41.9,27.5,57,30.32,10.0,NNW,3.5,-,N/A,,Clear,340,2013-03-02 04:15:00
10:35 PM,42.8,27.5,55,30.32,10.0,North,5.8,-,N/A,,Clear,360,2013-03-02 04:35:00
10:55 PM,41.4,27.3,57,30.32,10.0,NNW,3.5,-,N/A,,Clear,330,2013-03-02 04:55:00
11:15 PM,40.1,27.5,61,30.32,10.0,NNW,4.6,-,N/A,,Clear,330,2013-03-02 05:15:00
11:35 PM,40.3,27.5,60,30.33,10.0,NW,3.5,-,N/A,,Scattered Clouds,320,2013-03-02 05:35:00
11:55 PM,39.6,27.3,62,30.34,10.0,NNW,4.6,-,N/A,,Scattered Clouds,340,2013-03-02 05:55:00